Regional Weather Roundup
Issued by NWS

Home | Current Version | Previous Version | Text Only | Print | Product List | Glossary Off
Versions: 1 2 3 4 5 6 7 8 9 10 11 12 13 14 15 16 17 18 19 20 21 22 23 24 25 26 27 28 29 30 31 32 33 34 35 36 37 38 39 40 41 42 43 44 45 46 47 48 49 50

000
ASUS43 KLOT 241110
RWRIL

ILLINOIS REGIONAL WEATHER ROUNDUP
NATIONAL WEATHER SERVICE CHICAGO/ROMEOVILLE IL
600 AM CDT THU APR 24 2014

NOTE: "FAIR" INDICATES FEW OR NO CLOUDS BELOW 12,000 FEET WITH NO
SIGNIFICANT WEATHER AND/OR OBSTRUCTIONS TO VISIBILITY.

* THESE STATIONS ARE NOT UNDER NWS QUALITY CONTROL. THEY ALSO MAY NOT
  REPORT WEATHER SUCH AS PRECIPITATION OR FOG.

ILZ001-002-007-009-015-016-024-241200-
NORTHWEST ILLINOIS

CITY           SKY/WX    TMP DP  RH WIND       PRES   REMARKS
MOLINE         CLOUDY    46  37  71 SE18G24   29.87F
STERLING*      CLOUDY    45  36  70 E20       29.91F
SAVANNA*       CLOUDY    43  35  72 E13G21    29.91F
$$

ILZ003-004-008-010-011-017-018-241200-
NORTH CENTRAL ILLINOIS

CITY           SKY/WX    TMP DP  RH WIND       PRES   REMARKS
ROCKFORD       CLOUDY    41  31  67 E15       29.98F
FREEPORT*      CLOUDY    37  33  87 E10       29.96F WCI  29
ROCHELLE*      CLOUDY    41  34  76 E15       29.96F
DE KALB*       CLOUDY    39  32  75 E13       29.99F WCI  32
PERU*          CLOUDY    46  37  69 SE16G22   29.95F
$$

ILZ005-006-012>014-019>023-241200-
NORTHEAST ILLINOIS

CITY           SKY/WX    TMP DP  RH WIND       PRES   REMARKS
CHICAGO-OHARE  CLOUDY    41  32  70 E7        30.04F
CHICAGO-MIDWAY CLOUDY    43  35  73 E7        30.04F
AURORA         CLOUDY    43  34  70 E13       29.99F
LANSING*       CLOUDY    41  35  78 E5        30.05F
JOLIET*        CLOUDY    44  35  72 E12       30.02F
WAUKEGAN       CLOUDY    39  31  72 E7        30.05F WCI  34
DUPAGE AIRPORT CLOUDY    42  33  70 E9        30.01F
KANKAKEE*      CLOUDY    46  40  79 E7        30.04F
WHEELING       CLOUDY    41  32  70 E7        30.05F
MORRIS*        CLOUDY    46  35  65 E12       30.00F
ROMEOVILLE*    CLOUDY    43  34  72 E12       30.02F
NORTHERLY ISL    N/A     41  35  79 NE8         N/A
$$

LMZ740>746-241200-
SOUTHERN LAKE MICHIGAN

STATION/POSITION SKY/WX   TEMP    WIND        PRES    VSBY  WAVE
                          AIR SEA DIR/SP/G                  HT/PER
                          (F)     (DEG/KT/KT) (MB)    (MI)  (FT/S)
WAUKEGAN HARBOR            39      30/  5/  7 1019.3F
HARRISON CRIB              40      60/ 10/ 11   N/A
BURNHAM HARBOR             41      50/  6/ 10   N/A
CALUMET HARBOR             41      50/  7/ 10 1018.3F
MICHIGAN CITY              46      50/  3/  4   N/A
$$

ILZ025>027-034>036-040-047-049-050-058-095>099-241200-
WEST-CENTRAL ILLINOIS

CITY           SKY/WX    TMP DP  RH WIND       PRES   REMARKS
QUINCY         PTCLDY    52  35  52 SE15      29.81F
GALESBURG*     CLOUDY    47  39  76 E10G18    29.86F
MACOMB*        MOCLDY    50  34  54 SE15G22   29.88F
JACKSONVILLE*  PTCLDY    48  35  60 SE12G18   29.90F
PITTSFIELD*    PTCLDY    51  35  53 E12       29.87S
$$

ILZ028>032-037-038-041>044-048-051>054-059>061-241200-
CENTRAL ILLINOIS

CITY           SKY/WX    TMP DP  RH WIND       PRES   REMARKS
PONTIAC        CLOUDY    46  41  81 E14       29.99F
BLOOMINGTON    MOCLDY    46  36  68 SE12      29.98F
DECATUR        MOCLDY    49  36  61 E7        29.98R
PEORIA         MOCLDY    51  36  56 E13       29.93F
LACON*         CLOUDY    44  38  81 E14G23    29.93F
LINCOLN*       MOCLDY    51  35  53 E9        29.94F
SPRINGFIELD    MOCLDY    52  33  48 SE18      29.93F
TAYLORVILLE    MOCLDY    48  34  57 E8        29.95S
$$

ILZ033-039-045-046-055>057-062-063-241200-
EAST-CENTRAL ILLINOIS

CITY           SKY/WX    TMP DP  RH WIND       PRES   REMARKS
CHAMPAIGN      MOCLDY    48  37  65 E9        30.00R
RANTOUL*       CLOUDY    52  36  54 CALM      30.01S
MATTOON        MOCLDY    50  33  52 SE9       29.98R
PARIS*         MOCLDY    50  37  62 E7        30.02R
$$

ILZ079-100>102-241200-
SOUTHWEST ILLINOIS

CITY           SKY/WX    TMP DP  RH WIND       PRES   REMARKS
ALTON          PTCLDY    49  37  62 E9        29.91S
BELLEVILLE     MOCLDY    49  37  64 E6        29.91R
CAHOKIA*       MOCLDY    50  37  61 SE7       29.89F
SPARTA*        MOCLDY    50  36  57 SE8       29.93R
$$

ILZ064>066-069>071-074>076-080>082-084>086-088>090-092>094-241200-
SOUTH-CENTRAL ILLINOIS

CITY           SKY/WX    TMP DP  RH WIND       PRES   REMARKS
CARBONDALE     MOCLDY    53  35  50 SE8       29.94R
CAIRO*         MOCLDY    54  37  52 SE6       29.93S
MARION         CLOUDY    54  36  50 SE7       29.95R
MT. VERNON     MOCLDY    52  30  43 E3        29.96R
CENTRALIA*     MOCLDY    52  34  50 SE12      29.95R
SALEM*         MOCLDY    53  38  57 SE3       29.96R
METROPOLIS*    MOCLDY    50  35  56 E3        29.93S
$$

ILZ067-068-072-073-078-083-087-091-241200-
SOUTHEAST ILLINOIS

CITY           SKY/WX    TMP DP  RH WIND       PRES   REMARKS
FLORA*         PTCLDY    49  37  61 SE7       29.97R
FAIRFIELD*     MOCLDY    52  39  62 SE8       29.96S
HARRISBURG*    CLOUDY    51  39  63 E7        29.96S
ROBINSON*      MOCLDY    51  40  64 E6        30.01S
CARMI*         MOCLDY    52  41  65 E8        29.96R
$$

ABBREVIATIONS USED IN REMARKS
   TC - TEMPERATURE IN CELSIUS
  WCI - WIND CHILL INDEX
   HX - HEAT INDEX
  VSB - VISIBILITY
$$




USA.gov is the U.S. government's official web portal to all federal, state and local government web resources and services.